FW1161 Weather Reports


Display with metric or nautical units.
time (UTC)temp
F
wind
direction
speed
MPH
gust
MPH
rain 1hr
in
rain 24hr
in
rain mn
in
humidity
%
barometer
mb
20260507054517 52 294 1.0 7.0 0.07 0.32 0.07 92 1002.9
20260507053048 53 292 0.0 4.0 0.06 0.31 0.06 90 1002.1
20260507051544 54 277 2.0 6.0 0.00 0.25 0.00 89 1002.5
20260507050006 55 299 0.0 3.0 0.00 0.25 0.00 89 1001.5
20260507044534 55 301 0.0 5.0 0.00 0.25 0.00 91 1001.5
20260507043100 56 297 0.0 0.0 0.00 0.25 0.00 91 1001.5
20260507041500 56 297 0.0 3.0 0.00 0.25 0.00 91 1001.6
20260507040020 56 305 1.0 5.0 0.00 0.25 0.00 91 1002.0
20260507034555 56 344 0.0 3.0 0.00 0.25 0.25 91 1001.8
20260507033005 57 283 0.0 3.0 0.00 0.25 0.25 91 1001.3
20260507031532 58 259 1.0 9.0 0.01 0.25 0.25 90 1001.6
20260507030044 63 7 1.0 3.0 0.02 0.25 0.25 94 1001.0
20260507024511 63 289 0.0 2.0 0.12 0.25 0.25 95 1001.1
20260507023033 63 289 0.0 2.0 0.14 0.25 0.25 94 1001.1
20260507021601 64 289 2.0 5.0 0.13 0.24 0.24 93 1001.1
20260507020021 64 299 0.0 5.0 0.12 0.23 0.23 92 1001.0
20260507014545 66 276 0.0 2.0 0.01 0.12 0.12 87 1001.2
20260507013014 67 285 1.0 3.0 0.00 0.11 0.11 84 1000.8
20260507011545 67 337 1.0 4.0 0.00 0.11 0.11 84 1000.5
20260507010115 67 277 0.0 2.0 0.00 0.11 0.11 84 1000.9
20260507004523 67 272 0.0 1.0 0.00 0.11 0.11 83 1000.5
20260507003051 67 258 0.0 1.0 0.00 0.11 0.11 83 1000.2
20260507001549 67 258 0.0 2.0 0.00 0.11 0.11 82 1000.1
20260507000106 67 252 0.0 3.0 0.00 0.11 0.11 82 999.9
20260506234517 68 282 0.0 3.0 0.00 0.11 0.11 81 1000.0
20260506233045 68 260 0.0 2.0 0.00 0.11 0.11 81 999.9
20260506231503 68 263 1.0 2.0 0.00 0.11 0.11 80 1000.0
20260506230030 69 270 1.0 5.0 0.00 0.11 0.11 78 999.8
20260506224540 69 262 2.0 7.0 0.00 0.11 0.11 79 999.8
20260506223002 69 292 1.0 4.0 0.00 0.11 0.11 78 999.6
20260506221533 68 276 1.0 8.0 0.00 0.11 0.11 80 999.8
20260506220051 68 306 3.0 12.0 0.00 0.11 0.11 80 999.6
20260506214516 68 258 2.0 17.0 0.00 0.11 0.11 81 999.6
20260506213035 67 271 2.0 10.0 0.00 0.11 0.11 81 999.5
20260506211504 67 261 2.0 6.0 0.00 0.11 0.11 81 999.4
20260506210024 67 273 3.0 16.0 0.00 0.11 0.11 81 999.4
20260506204549 67 286 3.0 15.0 0.00 0.11 0.11 82 999.3
20260506203011 66 260 3.0 13.0 0.00 0.11 0.11 83 999.2
20260506201600 66 294 3.0 8.0 0.00 0.11 0.11 84 999.4
20260506200011 66 280 1.0 9.0 0.00 0.11 0.11 85 999.4
20260506194536 65 306 1.0 9.0 0.00 0.11 0.11 86 999.5
20260506193035 64 275 2.0 7.0 0.00 0.11 0.11 86 999.8
20260506191505 64 276 3.0 14.0 0.00 0.11 0.11 87 1000.0
20260506190019 64 268 3.0 15.0 0.00 0.11 0.11 87 1000.0
20260506184544 64 292 3.0 8.0 0.00 0.11 0.11 87 1000.1
20260506183006 63 273 4.0 13.0 0.00 0.11 0.11 88 1000.2
20260506181553 64 237 3.0 11.0 0.00 0.11 0.11 86 1000.2
20260506180006 63 270 2.0 6.0 0.01 0.11 0.11 87 1000.2
20260506174519 63 263 1.0 5.0 0.01 0.11 0.11 88 1000.3
20260506173039 63 257 2.0 10.0 0.01 0.11 0.11 88 1000.4
20260506171603 63 256 3.0 8.0 0.02 0.11 0.11 89 1000.4
20260506170022 63 236 1.0 5.0 0.03 0.10 0.10 90 1000.3
20260506164546 63 260 0.0 3.0 0.05 0.10 0.10 91 1000.5
20260506163005 63 267 0.0 5.0 0.07 0.10 0.10 91 1000.6
20260506161524 62 272 0.0 3.0 0.08 0.09 0.09 90 1001.4
20260506154524 63 275 1.0 3.0 0.05 0.05 0.05 88 1001.9
20260506153048 64 263 0.0 3.0 0.03 0.03 0.03 86 1001.8
20260506151510 65 285 1.0 5.0 0.01 0.01 0.01 81 1001.9
20260506150021 66 277 1.0 4.0 0.00 0.00 0.00 77 1001.5
20260506143055 67 289 4.0 16.0 0.00 0.00 0.00 71 1001.8
20260506141558 68 277 2.0 6.0 0.00 0.00 0.00 70 1001.8
20260506140005 68 259 3.0 19.0 0.00 0.00 0.00 71 1001.6
20260506134535 67 252 2.0 9.0 0.00 0.00 0.00 72 1001.6
20260506133119 67 270 1.0 11.0 0.00 0.00 0.00 73 1001.7
20260506131601 67 272 3.0 10.0 0.00 0.00 0.00 73 1001.7
20260506130030 67 267 3.0 8.0 0.00 0.00 0.00 73 1002.1
20260506124558 67 246 2.0 5.0 0.00 0.00 0.00 75 1001.8
20260506123009 66 303 2.0 4.0 0.00 0.00 0.00 75 1001.8
20260506121551 66 273 1.0 4.0 0.00 0.00 0.00 77 1001.6
20260506120011 65 268 2.0 10.0 0.00 0.00 0.00 78 1001.9
20260506114527 65 278 2.0 7.0 0.00 0.00 0.00 78 1001.9
20260506113057 65 274 1.0 6.0 0.00 0.00 0.00 78 1001.8
20260506111518 65 277 0.0 6.0 0.00 0.00 0.00 79 1001.8
20260506110006 64 237 1.0 8.0 0.00 0.00 0.00 79 1001.7
20260506104522 64 296 2.0 5.0 0.00 0.00 0.00 80 1001.8
20260506103007 64 275 0.0 5.0 0.00 0.00 0.00 81 1001.7
20260506101536 64 253 1.0 6.0 0.00 0.00 0.00 81 1001.6
20260506100108 64 252 1.0 5.0 0.00 0.00 0.00 81 1001.7
20260506094505 64 292 1.0 5.0 0.00 0.00 0.00 81 1001.4
20260506093032 64 270 1.0 6.0 0.00 0.00 0.00 80 1001.4
20260506091556 65 233 1.0 8.0 0.00 0.00 0.00 80 1001.5
20260506090019 65 262 1.0 5.0 0.00 0.00 0.00 80 1001.6
20260506084553 64 266 1.0 5.0 0.00 0.00 0.00 80 1001.6
20260506083007 64 251 1.0 3.0 0.00 0.00 0.00 81 1001.7
20260506081533 65 266 0.0 4.0 0.00 0.00 0.00 80 1001.8
20260506073052 65 273 0.0 5.0 0.00 0.00 0.00 78 1001.9
20260506071508 66 253 0.0 3.0 0.00 0.00 0.00 78 1001.9
20260506061543 67 276 0.0 7.0 0.00 0.00 0.00 76 1002.2